﻿測定場所 (Monitoring sites),日付 (Measurement date),時間 (Measurement time),線量率 最大値 (max) μGy/h,線量率 最小値 (min) μGy/h,線量率 平均値 (average) μGy/h,
調布 (Chofu),2014-11-30,23:01～24:00,0.0441,0.0367,0.0402,
調布 (Chofu),2014-11-30,22:01～23:00,0.0406,0.0327,0.0361,
調布 (Chofu),2014-11-30,21:01～22:00,0.0366,0.0299,0.0332,
調布 (Chofu),2014-11-30,20:01～21:00,0.0336,0.0297,0.0313,
調布 (Chofu),2014-11-30,19:01～20:00,0.0332,0.0294,0.0308,
調布 (Chofu),2014-11-30,18:01～19:00,0.0323,0.0289,0.0308,
調布 (Chofu),2014-11-30,17:01～18:00,0.0330,0.0289,0.0308,
調布 (Chofu),2014-11-30,16:01～17:00,0.0334,0.0288,0.0310,
調布 (Chofu),2014-11-30,15:01～16:00,0.0327,0.0293,0.0311,
調布 (Chofu),2014-11-30,14:01～15:00,0.0331,0.0287,0.0310,
調布 (Chofu),2014-11-30,13:01～14:00,0.0337,0.0288,0.0311,
調布 (Chofu),2014-11-30,12:01～13:00,0.0324,0.0288,0.0309,
調布 (Chofu),2014-11-30,11:01～12:00,0.0332,0.0296,0.0314,
調布 (Chofu),2014-11-30,10:01～11:00,0.0331,0.0304,0.0317,
調布 (Chofu),2014-11-30,09:01～10:00,0.0341,0.0302,0.0321,
調布 (Chofu),2014-11-30,08:01～09:00,0.0349,0.0303,0.0325,
調布 (Chofu),2014-11-30,07:01～08:00,0.0346,0.0305,0.0329,
調布 (Chofu),2014-11-30,06:01～07:00,0.0343,0.0295,0.0322,
調布 (Chofu),2014-11-30,05:01～06:00,0.0341,0.0301,0.0322,
調布 (Chofu),2014-11-30,04:01～05:00,0.0354,0.0302,0.0323,
調布 (Chofu),2014-11-30,03:01～04:00,0.0341,0.0303,0.0320,
調布 (Chofu),2014-11-30,02:01～03:00,0.0337,0.0303,0.0320,
調布 (Chofu),2014-11-30,01:01～02:00,0.0340,0.0306,0.0320,
調布 (Chofu),2014-11-30,00:01～01:00,0.0342,0.0297,0.0318,
調布 (Chofu),2014-11-29,23:01～24:00,0.0335,0.0302,0.0322,
調布 (Chofu),2014-11-29,22:01～23:00,0.0336,0.0298,0.0319,
調布 (Chofu),2014-11-29,21:01～22:00,0.0336,0.0297,0.0319,
調布 (Chofu),2014-11-29,20:01～21:00,0.0341,0.0305,0.0320,
調布 (Chofu),2014-11-29,19:01～20:00,0.0345,0.0304,0.0320,
調布 (Chofu),2014-11-29,18:01～19:00,0.0335,0.0304,0.0319,
調布 (Chofu),2014-11-29,17:01～18:00,0.0336,0.0293,0.0315,
調布 (Chofu),2014-11-29,16:01～17:00,0.0347,0.0299,0.0322,
調布 (Chofu),2014-11-29,15:01～16:00,0.0379,0.0308,0.0341,
調布 (Chofu),2014-11-29,14:01～15:00,0.0477,0.0355,0.0409,
調布 (Chofu),2014-11-29,13:01～14:00,0.0526,0.0418,0.0480,
調布 (Chofu),2014-11-29,12:01～13:00,0.0518,0.0426,0.0467,
調布 (Chofu),2014-11-29,11:01～12:00,0.0512,0.0336,0.0411,
調布 (Chofu),2014-11-29,10:01～11:00,0.0354,0.0309,0.0332,
調布 (Chofu),2014-11-29,09:01～10:00,0.0344,0.0296,0.0316,
調布 (Chofu),2014-11-29,08:01～09:00,0.0337,0.0297,0.0319,
調布 (Chofu),2014-11-29,07:01～08:00,0.0349,0.0313,0.0333,
調布 (Chofu),2014-11-29,06:01～07:00,0.0352,0.0316,0.0334,
調布 (Chofu),2014-11-29,05:01～06:00,0.0351,0.0315,0.0334,
調布 (Chofu),2014-11-29,04:01～05:00,0.0351,0.0317,0.0334,
調布 (Chofu),2014-11-29,03:01～04:00,0.0357,0.0315,0.0335,
調布 (Chofu),2014-11-29,02:01～03:00,0.0354,0.0315,0.0335,
調布 (Chofu),2014-11-29,01:01～02:00,0.0356,0.0318,0.0334,
調布 (Chofu),2014-11-29,00:01～01:00,0.0348,0.0313,0.0328,
調布 (Chofu),2014-11-28,23:01～24:00,0.0347,0.0303,0.0324,
調布 (Chofu),2014-11-28,22:01～23:00,0.0345,0.0301,0.0323,
調布 (Chofu),2014-11-28,21:01～22:00,0.0347,0.0304,0.0324,
調布 (Chofu),2014-11-28,20:01～21:00,0.0337,0.0303,0.0321,
調布 (Chofu),2014-11-28,19:01～20:00,0.0357,0.0297,0.0322,
調布 (Chofu),2014-11-28,18:01～19:00,0.0343,0.0301,0.0319,
調布 (Chofu),2014-11-28,17:01～18:00,0.0332,0.0293,0.0318,
調布 (Chofu),2014-11-28,16:01～17:00,0.0344,0.0293,0.0317,
調布 (Chofu),2014-11-28,15:01～16:00,0.0336,0.0298,0.0318,
調布 (Chofu),2014-11-28,14:01～15:00,0.0333,0.0296,0.0318,
調布 (Chofu),2014-11-28,13:01～14:00,0.0337,0.0297,0.0318,
調布 (Chofu),2014-11-28,12:01～13:00,0.0335,0.0300,0.0319,
調布 (Chofu),2014-11-28,11:01～12:00,0.0337,0.0297,0.0319,
調布 (Chofu),2014-11-28,10:01～11:00,0.0344,0.0301,0.0320,
調布 (Chofu),2014-11-28,09:01～10:00,0.0340,0.0300,0.0321,
調布 (Chofu),2014-11-28,08:01～09:00,0.0339,0.0299,0.0324,
調布 (Chofu),2014-11-28,07:01～08:00,0.0341,0.0305,0.0325,
調布 (Chofu),2014-11-28,06:01～07:00,0.0348,0.0309,0.0326,
調布 (Chofu),2014-11-28,05:01～06:00,0.0349,0.0306,0.0328,
調布 (Chofu),2014-11-28,04:01～05:00,0.0351,0.0309,0.0328,
調布 (Chofu),2014-11-28,03:01～04:00,0.0352,0.0309,0.0327,
調布 (Chofu),2014-11-28,02:01～03:00,0.0346,0.0308,0.0325,
調布 (Chofu),2014-11-28,01:01～02:00,0.0348,0.0301,0.0323,
調布 (Chofu),2014-11-28,00:01～01:00,0.0338,0.0303,0.0318,
調布 (Chofu),2014-11-27,23:01～24:00,0.0337,0.0304,0.0321,
調布 (Chofu),2014-11-27,22:01～23:00,0.0341,0.0297,0.0320,
調布 (Chofu),2014-11-27,21:01～22:00,0.0340,0.0301,0.0320,
調布 (Chofu),2014-11-27,20:01～21:00,0.0335,0.0299,0.0316,
調布 (Chofu),2014-11-27,19:01～20:00,0.0336,0.0293,0.0311,
調布 (Chofu),2014-11-27,18:01～19:00,0.0330,0.0292,0.0310,
調布 (Chofu),2014-11-27,17:01～18:00,0.0327,0.0290,0.0309,
調布 (Chofu),2014-11-27,16:01～17:00,0.0325,0.0288,0.0307,
調布 (Chofu),2014-11-27,15:01～16:00,0.0334,0.0289,0.0311,
調布 (Chofu),2014-11-27,14:01～15:00,0.0335,0.0293,0.0312,
調布 (Chofu),2014-11-27,13:01～14:00,0.0331,0.0286,0.0309,
調布 (Chofu),2014-11-27,12:01～13:00,0.0328,0.0295,0.0308,
調布 (Chofu),2014-11-27,11:01～12:00,0.0330,0.0291,0.0309,
調布 (Chofu),2014-11-27,10:01～11:00,0.0326,0.0274,0.0308,
調布 (Chofu),2014-11-27,09:01～10:00,0.0332,0.0285,0.0309,
調布 (Chofu),2014-11-27,08:01～09:00,0.0328,0.0292,0.0308,
調布 (Chofu),2014-11-27,07:01～08:00,0.0330,0.0288,0.0309,
調布 (Chofu),2014-11-27,06:01～07:00,0.0328,0.0292,0.0309,
調布 (Chofu),2014-11-27,05:01～06:00,0.0326,0.0288,0.0308,
調布 (Chofu),2014-11-27,04:01～05:00,0.0335,0.0291,0.0315,
調布 (Chofu),2014-11-27,03:01～04:00,0.0368,0.0305,0.0338,
調布 (Chofu),2014-11-27,02:01～03:00,0.0469,0.0355,0.0401,
調布 (Chofu),2014-11-27,01:01～02:00,0.0544,0.0422,0.0475,
調布 (Chofu),2014-11-27,00:01～01:00,0.0510,0.0341,0.0405,
調布 (Chofu),2014-11-26,23:01～24:00,0.0424,0.0339,0.0374,
調布 (Chofu),2014-11-26,22:01～23:00,0.0550,0.0391,0.0465,
調布 (Chofu),2014-11-26,21:01～22:00,0.0564,0.0470,0.0516,
調布 (Chofu),2014-11-26,20:01～21:00,0.0600,0.0471,0.0529,
調布 (Chofu),2014-11-26,19:01～20:00,0.0662,0.0532,0.0602,
調布 (Chofu),2014-11-26,18:01～19:00,0.0576,0.0363,0.0449,
調布 (Chofu),2014-11-26,17:01～18:00,0.0456,0.0363,0.0412,
調布 (Chofu),2014-11-26,16:01～17:00,0.0433,0.0360,0.0389,
調布 (Chofu),2014-11-26,15:01～16:00,0.0472,0.0378,0.0425,
調布 (Chofu),2014-11-26,14:01～15:00,0.0542,0.0437,0.0489,
調布 (Chofu),2014-11-26,13:01～14:00,0.0578,0.0507,0.0540,
調布 (Chofu),2014-11-26,12:01～13:00,0.0582,0.0483,0.0547,
調布 (Chofu),2014-11-26,11:01～12:00,0.0551,0.0453,0.0497,
調布 (Chofu),2014-11-26,10:01～11:00,0.0569,0.0483,0.0525,
調布 (Chofu),2014-11-26,09:01～10:00,0.0632,0.0528,0.0578,
調布 (Chofu),2014-11-26,08:01～09:00,0.0648,0.0574,0.0612,
調布 (Chofu),2014-11-26,07:01～08:00,0.0632,0.0510,0.0571,
調布 (Chofu),2014-11-26,06:01～07:00,0.0637,0.0525,0.0578,
調布 (Chofu),2014-11-26,05:01～06:00,0.0654,0.0553,0.0597,
調布 (Chofu),2014-11-26,04:01～05:00,0.0738,0.0624,0.0676,
調布 (Chofu),2014-11-26,03:01～04:00,0.0770,0.0653,0.0706,
調布 (Chofu),2014-11-26,02:01～03:00,0.0677,0.0555,0.0627,
調布 (Chofu),2014-11-26,01:01～02:00,0.0662,0.0562,0.0618,
調布 (Chofu),2014-11-26,00:01～01:00,0.0643,0.0515,0.0562,
調布 (Chofu),2014-11-25,23:01～24:00,0.0584,0.0477,0.0522,
調布 (Chofu),2014-11-25,22:01～23:00,0.0564,0.0451,0.0508,
調布 (Chofu),2014-11-25,21:01～22:00,0.0509,0.0432,0.0473,
調布 (Chofu),2014-11-25,20:01～21:00,0.0491,0.0405,0.0448,
調布 (Chofu),2014-11-25,19:01～20:00,0.0466,0.0403,0.0429,
調布 (Chofu),2014-11-25,18:01～19:00,0.0454,0.0398,0.0426,
調布 (Chofu),2014-11-25,17:01～18:00,0.0507,0.0415,0.0458,
調布 (Chofu),2014-11-25,16:01～17:00,0.0510,0.0403,0.0445,
調布 (Chofu),2014-11-25,15:01～16:00,0.0498,0.0405,0.0442,
調布 (Chofu),2014-11-25,14:01～15:00,0.0492,0.0369,0.0434,
調布 (Chofu),2014-11-25,13:01～14:00,0.0426,0.0359,0.0397,
調布 (Chofu),2014-11-25,12:01～13:00,0.0447,0.0380,0.0419,
調布 (Chofu),2014-11-25,11:01～12:00,0.0447,0.0366,0.0400,
調布 (Chofu),2014-11-25,10:01～11:00,0.0412,0.0358,0.0380,
調布 (Chofu),2014-11-25,09:01～10:00,0.0427,0.0359,0.0389,
調布 (Chofu),2014-11-25,08:01～09:00,0.0419,0.0361,0.0383,
調布 (Chofu),2014-11-25,07:01～08:00,0.0422,0.0353,0.0372,
調布 (Chofu),2014-11-25,06:01～07:00,0.0372,0.0333,0.0352,
調布 (Chofu),2014-11-25,05:01～06:00,0.0369,0.0330,0.0350,
調布 (Chofu),2014-11-25,04:01～05:00,0.0365,0.0332,0.0345,
調布 (Chofu),2014-11-25,03:01～04:00,0.0373,0.0329,0.0348,
調布 (Chofu),2014-11-25,02:01～03:00,0.0369,0.0326,0.0344,
調布 (Chofu),2014-11-25,01:01～02:00,0.0365,0.0320,0.0342,
調布 (Chofu),2014-11-25,00:01～01:00,0.0362,0.0322,0.0339,
調布 (Chofu),2014-11-24,23:01～24:00,0.0355,0.0316,0.0335,
調布 (Chofu),2014-11-24,22:01～23:00,0.0355,0.0307,0.0334,
調布 (Chofu),2014-11-24,21:01～22:00,0.0347,0.0306,0.0329,
調布 (Chofu),2014-11-24,20:01～21:00,0.0347,0.0301,0.0323,
調布 (Chofu),2014-11-24,19:01～20:00,0.0340,0.0304,0.0322,
調布 (Chofu),2014-11-24,18:01～19:00,0.0346,0.0307,0.0325,
調布 (Chofu),2014-11-24,17:01～18:00,0.0348,0.0301,0.0322,
調布 (Chofu),2014-11-24,16:01～17:00,0.0343,0.0301,0.0322,
調布 (Chofu),2014-11-24,15:01～16:00,0.0338,0.0304,0.0322,
調布 (Chofu),2014-11-24,14:01～15:00,0.0337,0.0302,0.0322,
調布 (Chofu),2014-11-24,13:01～14:00,0.0339,0.0304,0.0322,
調布 (Chofu),2014-11-24,12:01～13:00,0.0344,0.0303,0.0323,
調布 (Chofu),2014-11-24,11:01～12:00,0.0342,0.0309,0.0323,
調布 (Chofu),2014-11-24,10:01～11:00,0.0346,0.0299,0.0323,
調布 (Chofu),2014-11-24,09:01～10:00,0.0347,0.0304,0.0326,
調布 (Chofu),2014-11-24,08:01～09:00,0.0349,0.0307,0.0329,
調布 (Chofu),2014-11-24,07:01～08:00,0.0340,0.0303,0.0323,
調布 (Chofu),2014-11-24,06:01～07:00,0.0338,0.0293,0.0323,
調布 (Chofu),2014-11-24,05:01～06:00,0.0340,0.0300,0.0321,
調布 (Chofu),2014-11-24,04:01～05:00,0.0341,0.0305,0.0322,
調布 (Chofu),2014-11-24,03:01～04:00,0.0347,0.0303,0.0322,
調布 (Chofu),2014-11-24,02:01～03:00,0.0339,0.0299,0.0320,
調布 (Chofu),2014-11-24,01:01～02:00,0.0350,0.0302,0.0320,
調布 (Chofu),2014-11-24,00:01～01:00,0.0334,0.0304,0.0320,
